Lancaster, PA

3:54 AM EDT on August 30, 2016 (GMT -0400)
Lancaster

Weather History for KLNS - January, 2013

Change the Weather History Date:

Wednesday, January 30, 2013

  Actual Average Record
Temperature  
Mean Temperature 52 °F -  
Max Temperature 64 °F 38 °F 64 °F (2013)
Min Temperature 39 °F 20 °F 0 °F (2014)
Degree Days  
Heating Degree Days 14    
Growing Degree Days 2 (Base 50)    
Moisture  
Dew Point 49 °F    
Average Humidity 93    
Maximum Humidity 100    
Minimum Humidity 75    
Precipitation  
Precipitation 1.63 in - - ()
Sea Level Pressure  
Sea Level Pressure 29.65 in    
Wind  
Wind Speed 7 mph (SE)    
Max Wind Speed 20 mph    
Max Gust Speed 39 mph    
Visibility 2 miles    
Events Fog , Rain    
Averages and records for this station are not official NWS values.
T = Trace of Precipitation, MM = Missing Value Source: NWS Daily Summary

Daily Weather History Graph

Daily Weather History Graph

Search for Another Location

Airport or City:

Trip Planner

Search our weather history database for the weather conditions in past years. The results will help you decide how hot, cold, wet, or windy it might be!

Date:

Astronomy

Jan. 30, 2013 Rise Set
Actual Time 7:15 AM EST 5:22 PM EST
Civil Twilight 6:46 AM EST 5:50 PM EST
Nautical Twilight 6:14 AM EST 6:23 PM EST
Astronomical Twilight 5:42 AM EST 6:55 PM EST
Moon 9:18 PM EST 8:42 AM EST
Length of Visible Light 11h 04m
Length of Day
10h 06m
Waning Gibbous, 88% of the Moon is Illuminated
Jan 30
Waning Gibbous
Feb 3
Last Quarter
Feb 10
New
Feb 17
First Quarter
Feb 25
Full

Hourly Weather History & Observations

Time (EST) Temp. Windchill Dew Point Humidity Pressure Visibility Wind Dir Wind Speed Gust Speed Precip Events Conditions
12:18 AM 39.2 °F 35.9 °F 37.4 °F 93% 29.97 in 1.8 mi East 4.6 mph - N/A   Clear
12:30 AM 41.0 °F 38.0 °F 39.2 °F 93% 29.97 in 2.0 mi East 4.6 mph - N/A   Clear
12:44 AM 39.2 °F 34.2 °F 39.2 °F 100% 29.97 in 1.2 mi ENE 6.9 mph - N/A   Clear
12:53 AM 39.9 °F 35.1 °F 37.9 °F 93% 29.97 in 1.8 mi ENE 6.9 mph - N/A   Clear
1:24 AM 39.2 °F 35.0 °F 37.4 °F 93% 29.95 in 0.8 mi ENE 5.8 mph - N/A   Clear
1:31 AM 39.2 °F 35.0 °F 37.4 °F 93% 29.95 in 1.0 mi East 5.8 mph - N/A   Clear
1:53 AM 39.0 °F 34.0 °F 37.9 °F 96% 29.95 in 0.8 mi ENE 6.9 mph - N/A   Clear
2:04 AM 39.2 °F 34.2 °F 37.4 °F 93% 29.94 in 1.0 mi ENE 6.9 mph - N/A   Clear
2:45 AM 39.2 °F 35.0 °F 37.4 °F 93% 29.91 in 0.5 mi East 5.8 mph - N/A Fog Fog
2:53 AM 39.0 °F 35.7 °F 37.9 °F 96% 29.91 in 0.2 mi East 4.6 mph - N/A Fog Fog
3:53 AM 39.9 °F 36.7 °F 39.0 °F 97% 29.88 in 0.2 mi East 4.6 mph - N/A Fog Fog
4:53 AM 41.0 °F 37.1 °F 39.9 °F 96% 29.87 in 0.2 mi ENE 5.8 mph - N/A Fog Fog
5:53 AM 42.1 °F 38.4 °F 41.0 °F 96% 29.84 in 0.2 mi ENE 5.8 mph - N/A Fog Fog
6:08 AM 41.0 °F 36.4 °F 39.2 °F 93% 29.83 in 0.2 mi ENE 6.9 mph - N/A Fog Fog
6:40 AM 42.8 °F 38.0 °F 41.0 °F 93% 29.82 in 0.5 mi ENE 8.1 mph - N/A Fog Fog
6:53 AM 41.0 °F 36.4 °F 39.9 °F 96% 29.83 in 0.5 mi NE 6.9 mph - N/A Fog Fog
7:00 AM 42.8 °F 39.3 °F 41.0 °F 93% 29.82 in 0.2 mi NE 5.8 mph - N/A Fog Fog
7:43 AM 41.0 °F 38.0 °F 41.0 °F 100% 29.80 in 0.2 mi ENE 4.6 mph - N/A Fog Fog
7:53 AM 42.1 °F 39.2 °F 41.0 °F 96% 29.80 in 0.1 mi East 4.6 mph - N/A Fog Fog
8:43 AM 46.4 °F - 46.4 °F 100% 29.78 in 0.5 mi Calm Calm - N/A Fog Fog
8:53 AM 48.0 °F - 46.9 °F 96% 29.77 in 1.0 mi Calm Calm - N/A   Mostly Cloudy
9:17 AM 53.6 °F - 51.8 °F 94% 29.76 in 3.0 mi SSW 9.2 mph - N/A   Mostly Cloudy
9:53 AM 57.0 °F - 53.1 °F 87% 29.75 in 6.0 mi South 12.7 mph 21.9 mph N/A   Overcast
10:44 AM 57.2 °F - 53.6 °F 88% 29.72 in 6.0 mi South 8.1 mph - N/A   Overcast
10:53 AM 57.9 °F - 54.0 °F 87% 29.72 in 6.0 mi South 10.4 mph - N/A   Overcast
11:53 AM 60.1 °F - 55.0 °F 83% 29.67 in 6.0 mi South 16.1 mph 21.9 mph N/A   Haze
12:26 PM 62.6 °F - 55.4 °F 77% 29.64 in 8.0 mi South 13.8 mph 20.7 mph N/A   Scattered Clouds
12:53 PM 62.1 °F - 55.0 °F 78% 29.62 in 9.0 mi South 13.8 mph 25.3 mph N/A   Mostly Cloudy
1:38 PM 62.6 °F - 55.4 °F 77% 29.58 in 10.0 mi South 17.3 mph 27.6 mph N/A   Overcast
1:53 PM 62.1 °F - 55.9 °F 80% 29.57 in 10.0 mi South 17.3 mph 24.2 mph 0.00 in Rain Light Rain
2:53 PM 64.0 °F - 55.9 °F 75% 29.56 in 10.0 mi South 17.3 mph 25.3 mph 0.00 in   Overcast
3:18 PM 59.0 °F - 53.6 °F 82% 29.61 in 0.8 mi West 19.6 mph 39.1 mph 0.13 in Rain Heavy Rain
3:22 PM 57.2 °F - 55.4 °F 94% 29.61 in 0.5 mi West 16.1 mph 39.1 mph 0.21 in Fog , Rain Heavy Rain
3:30 PM 57.2 °F - 55.4 °F 94% 29.61 in 1.0 mi West 10.4 mph - 0.25 in Rain Heavy Rain
3:39 PM 57.2 °F - 55.4 °F 94% 29.60 in 3.0 mi WSW 6.9 mph - 0.26 in Rain Light Rain
3:53 PM 57.0 °F - 55.0 °F 93% 29.60 in 2.0 mi WSW 4.6 mph - 0.29 in Rain Rain
4:01 PM 57.2 °F - 55.4 °F 94% 29.60 in 3.0 mi SW 4.6 mph - 0.02 in Rain Rain
4:53 PM 55.9 °F - 54.0 °F 93% 29.60 in 3.0 mi South 3.5 mph - 0.08 in Rain Light Rain
5:04 PM 53.6 °F - 53.6 °F 100% 29.59 in 1.8 mi Calm Calm - 0.01 in Rain Light Rain
5:20 PM 55.4 °F - 53.6 °F 94% 29.58 in 3.0 mi SSE 4.6 mph - 0.03 in Rain Light Rain
5:27 PM 55.4 °F - 53.6 °F 94% 29.58 in 1.0 mi SSE 4.6 mph - 0.04 in Rain Rain
5:53 PM 55.9 °F - 54.0 °F 93% 29.59 in 1.0 mi South 6.9 mph - 0.07 in Rain Light Rain
6:00 PM 55.4 °F - 53.6 °F 94% 29.58 in 3.0 mi South 6.9 mph - 0.01 in Rain Light Rain
6:53 PM 55.0 °F - 54.0 °F 96% 29.56 in 3.0 mi South 9.2 mph - 0.11 in Rain Rain
7:16 PM 55.4 °F - 53.6 °F 94% 29.53 in 2.5 mi SSE 6.9 mph - 0.06 in Rain Rain
7:25 PM 55.4 °F - 53.6 °F 94% 29.53 in 1.5 mi SSE 8.1 mph - 0.10 in Rain Heavy Rain
7:48 PM 55.4 °F - 53.6 °F 94% 29.51 in 2.0 mi SSE 9.2 mph - 0.23 in Rain Heavy Rain
7:53 PM 55.0 °F - 53.1 °F 93% 29.51 in 2.0 mi SSE 9.2 mph - 0.26 in Rain Heavy Rain
8:14 PM 53.6 °F - 53.6 °F 100% 29.50 in 3.0 mi SSE 8.1 mph - 0.08 in Rain Rain
8:21 PM 53.6 °F - 53.6 °F 100% 29.49 in 2.0 mi SSE 8.1 mph - 0.11 in Rain Heavy Rain
8:53 PM 54.0 °F - 53.1 °F 97% 29.48 in 3.0 mi SSE 5.8 mph - 0.21 in Rain Rain
9:07 PM 53.6 °F - 51.8 °F 94% 29.45 in 1.8 mi ESE 8.1 mph - 0.03 in Rain Rain
9:16 PM 53.6 °F - 51.8 °F 94% 29.45 in 0.5 mi ESE 6.9 mph - 0.04 in Fog , Rain Rain
9:24 PM 53.6 °F - 51.8 °F 94% 29.44 in 0.2 mi ESE 8.1 mph - 0.05 in Fog , Rain Light Rain
9:53 PM 52.0 °F - 51.1 °F 97% 29.40 in 0.2 mi ENE 6.9 mph - 0.08 in Fog , Rain Light Rain
10:28 PM 51.8 °F - 50.0 °F 94% 29.37 in 0.2 mi ESE 5.8 mph - 0.04 in Fog , Rain Light Rain
10:39 PM 51.8 °F - 50.0 °F 94% 29.37 in 0.2 mi SE 5.8 mph - 0.05 in Fog , Rain Light Rain
10:46 PM 51.8 °F - 51.8 °F 100% 29.35 in 1.0 mi ESE 6.9 mph - 0.07 in Rain Rain
10:53 PM 52.0 °F - 51.1 °F 97% 29.34 in 2.5 mi ESE 8.1 mph - 0.09 in Rain Rain
11:11 PM 53.6 °F - 51.8 °F 94% 29.35 in 3.0 mi SSE 8.1 mph - 0.06 in Rain Rain
11:22 PM 53.6 °F - 51.8 °F 94% 29.31 in 2.0 mi SE 6.9 mph - 0.14 in Rain Heavy Rain
11:39 PM 53.6 °F - 51.8 °F 94% 29.31 in 1.2 mi SE 8.1 mph - 0.35 in Rain Heavy Rain
11:53 PM 53.1 °F - 52.0 °F 96% 29.28 in 2.0 mi ESE 4.6 mph - 0.44 in Rain Heavy Rain